sat.trackr.live / text

‹ back to catalog

ICEYE-X65

NORAD 66300 · 2025-248H

PAYLOAD ACTIVE UNKNOWN

§ Identity

Operator
Country
UAE
Launch date
2025-11-02
Launch site
AFETR
Launch vehicle
Mass (kg)
RCS (m²)

External: N2YO · Heavens-Above · Gunter

§ Orbital elements

Epoch: 2026-05-25T00:38:11.292576Z

Period
95.44 min
Inclination
45.4047°
Eccentricity
0.0006493
Mean motion
15.08765752 rev/d
Perigee alt
535.5 km
Apogee alt
544.5 km
Semi-major
6,918.1 km
B*
2.4649e-4
RAAN
255.9608°
Arg perigee
264.9607°
Mean anomaly
95.0534°
Rev number
3,202

§ Raw data

ICEYE-X651 66300U 25248H   26145.02651959  .00003685  00000+0  24649-3 0  99902 66300  45.4047 255.9608 0006493 264.9607  95.0534 15.08765752 32021

JSON: /api/v1/satellites/66300 · /tle

For live sub-satellite position, see the globe view (requires WebGL).

§ Visibility from observer

Set your observer location to see the next 7 days of passes ≥ 10°. The values pass through the URL so the page stays shareable.

No JS? Fill the form by hand. The geolocation button needs JavaScript.